Showing default

IRIDIUM 130, 43073

Orbit data source: Space-Track

IRIDIUM 130, 43073 is a payload satellite owned by Iridium (US) in LEO that was launched on Sat, 23 Dec 2017 UTC via an FALCON 9 launch vehicle from the Air Force Western Test Range (AFWTR). Payload-class satellites include a variety of spacecraft equipped with specific instruments for various scientific and technological missions. These include communications satellites like Starlink; space stations such as the ISS; scientific satellites like the Hubble; Earth observation satellites from companies like Planet Labs, Umbra, and HawkEye 360; GPS; miniature CubeSats for education and research; and military/defense satellites.

Loading next visibility...
Identifier
43073, 2017-083D
Orbit
LEO
Country
Flag of USUS
Related business
Manufacturer
OATK SSG Gilbert
Mission
Operational Commercial Communications
Bus & Motor
ELITEBUS, Unknown motor
Mass
860 kg wet, 700 kg dry
Launch date (UTC)
2017-12-23 (8 years ago)
Launch vehicle
FALCON 9
Launch site
Air Force Western Test Range (AFWTR)
Object type
Payload
Rocket body
Debris
Shape & HBR
Trap Box + 2 Pan, 4.8 m
Radar Cross Section
10.154 m², Large (>1 m²)

Expand to show TLE details & history
Last TLE update: 12 hours ago

TLE from 12 hours ago
0 IRIDIUM 130
1 43073U 17083D   25347.66879219  .00000361  00000-0  12175-3 0  9994
2 43073  86.3976  39.8014 0002423 101.5533 258.5935 14.34218185417525
Epoch: 2025-12-13T16:03Z
TLE epoch observation values (Epoch: 2025-12-13T16:03:03.645Z)
Latitude
Longitude
76.44346°
Altitude
781.06 km
Speed
7.463 km/s
True Right ascension
02h 39m 12s
True Declination
0° 00' 00"
Sunlit
Object was in full shadow at epoch
Visualization orbit readout
Latitude
Unknown
Longitude
Unknown
Altitude
Unknown
Speed
Unknown
Apparent Right ascension
Unknown
Apparent Declination
Unknown
Sunlit
N/A
Visualization observer readout
Local Sidereal Time
02:55:58
Azimuth
Unknown
Elevation
Unknown
Doppler factor
Unknown
Orbital elements
Apogee altitude
776.363 km
Perigee altitude
772.897 km
Semi-major axis
7,152.767 km
Eccentricity
0.00024
Inclination
86.3976°
RAAN
39.8014°
Arg. of periapsis
101.5533°
True anomaly
258.56628°
Mean anomaly
258.5935°
Eccentric anomaly
258.57989°
Mean motion
3.58783 °/min
Orbital period
100.34 mins
BSTAR
0.00012175
Loading maneuver chart data...
Computing Atmospheric mass density...
Loading historical data...
Loading historical data...
Loading historical data...
Loading historical data...
Loading historical data...
Loading historical data...
Loading historical data...

Documentation

Showing up to 5 results
|